Regional Weather Roundup
Issued by NWS

Home | Current Version | Previous Version | Graphics & Text | Print | Product List | Glossary On
Versions: 1 2 3 4 5 6 7 8 9 10 11 12 13 14 15 16 17 18 19 20 21 22 23 24 25 26 27
000
ASUS45 KPSR 280010
RWRAZ

ARIZONA HOURLY REGIONAL WEATHER ROUNDUP
NATIONAL WEATHER SERVICE PHOENIX AZ
500 PM MST FRI MAY 27 2016

NOTE: FAIR INDICATES FEW OR NO CLOUDS BELOW 12,000 FEET WITH NO
SIGNIFICANT WEATHER AND/OR OBSTRUCTIONS TO VISIBILITY.

AZZ001>003-036-280100-
NORTHWEST ARIZONA

CITY           SKY/WX    TMP DP  RH WIND       PRES   REMARKS
BULLHEAD CITY  MOSUNNY   93  32  11 MISG      29.69F
KINGMAN        MOSUNNY   81  24  12 W6        29.85F
6HR MIN TEMP:  77; 6HR MAX TEMP:  85;

$$

AZZ004>008-015-016-018-280100-
NORTH CENTRAL ARIZONA

CITY           SKY/WX    TMP DP  RH WIND       PRES   REMARKS
GRAND CANYON   MOSUNNY   68  25  19 W6G17     30.01S
6HR MIN TEMP:  63; 6HR MAX TEMP:  69;

WILLIAMS       MOSUNNY   66  25  20 W8        30.08F
PRESCOTT       PTSUNNY   75  24  15 VRB5      29.93S
6HR MIN TEMP:  69; 6HR MAX TEMP:  77;

FLAGSTAFF      MOSUNNY   63  25  23 W9        30.03F
6HR MIN TEMP:  59; 6HR MAX TEMP:  65;

PAYSON         MOSUNNY   75  25  15 W12G20    29.96S
PAGE           MOSUNNY   78  30  17 N15       29.85R
6HR MIN TEMP:  71; 6HR MAX TEMP:  81;

$$

AZZ009>014-017-280100-
NORTHEAST ARIZONA

CITY           SKY/WX    TMP DP  RH WIND       PRES   REMARKS
WINSLOW        MOSUNNY   77  27  15 W14       29.91S
6HR MIN TEMP:  72; 6HR MAX TEMP:  78;

SAINT JOHNS    MOSUNNY   71  22  15 NW9       29.93S
6HR MIN TEMP:  67; 6HR MAX TEMP:  74;

WINDOW ROCK    MOSUNNY   68  20  16 W15G25    29.97S
6HR MIN TEMP:  63; 6HR MAX TEMP:  71;

SHOW LOW       PTSUNNY   64  25  22 W9        30.01S
$$

AZZ023-280100-
GREATER PHOENIX AREA

CITY           SKY/WX    TMP DP  RH WIND       PRES   REMARKS
PHOENIX        MOSUNNY   91  26   9 MISG      29.72F
6HR MIN TEMP:  83; 6HR MAX TEMP:  93;

BUCKEYE        SUNNY     91  30  11 SE3       29.75F
GLENDALE       MOSUNNY   91  28  10 S10       29.74F
LUKE AFB       SUNNY     91  26   9 S13       29.71F
6HR MIN TEMP:  84; 6HR MAX TEMP:  92;

DEER VALLEY    SUNNY     89  30  12 S10       29.74F
6HR MIN TEMP:  81; 6HR MAX TEMP:  90;

SCOTTSDALE     SUNNY     90  27  10 W7G16     29.76F
6HR MIN TEMP:  81; 6HR MAX TEMP:  91;

MESA-GATEWAY   SUNNY     88  28  11 CALM      29.76F
CHANDLER       SUNNY     90  28  11 SW7       29.75F
$$

AZZ027-028-280100-
SOUTHWEST MARICOPA COUNTY AND PINAL COUNTY

CITY           SKY/WX    TMP DP  RH WIND       PRES   REMARKS
CASA GRANDE    SUNNY     90  28  11 N6        29.78F
6HR MIN TEMP:  82; 6HR MAX TEMP:  90;

GILA BEND      FAIR      92  28  10 NW9       29.72R
6HR MIN TEMP:  84; 6HR MAX TEMP:  93;

$$

AZZ503-504-507>509-280100-
SOUTHEAST ARIZONA

CITY           SKY/WX    TMP DP  RH WIND       PRES   REMARKS
TUCSON         SUNNY     87  22   9 W5        29.83F
6HR MIN TEMP:  79; 6HR MAX TEMP:  87;

DAVIS-MONTHAN  SUNNY     86  21   9 NW8       29.81F
6HR MIN TEMP:  78; 6HR MAX TEMP:  86;

RYAN FIELD     SUNNY     86  27  11 NW8       29.82F
NOGALES        SUNNY     84  17   8 S10       29.87F
6HR MIN TEMP:  76; 6HR MAX TEMP:  86;

SIERRA VISTA   SUNNY     81  11   7 W10       29.92S
6HR MIN TEMP:  71; 6HR MAX TEMP:  81;

DOUGLAS        SUNNY     83  14   7 MISG      29.87F
6HR MIN TEMP:  73; 6HR MAX TEMP:  84;

SAFFORD        SUNNY     85  23  10 W12G25    29.80F
6HR MIN TEMP:  79; 6HR MAX TEMP:  87;

$$

AZZ020-021-025-026-031-280100-
SOUTHWEST ARIZONA

CITY           SKY/WX    TMP DP  RH WIND       PRES   REMARKS
YUMA           SUNNY     92  36  14 VRB5      29.71F
6HR MIN TEMP:  84; 6HR MAX TEMP:  94;

$$

CAZ031-033-041-043-047-048-061-280100-
SOUTHERN CALIFORNIA

CITY           SKY/WX    TMP DP  RH WIND       PRES   REMARKS
DOWNTOWN L.A.  SUNNY     69  56  62 VRB3      29.84S
6HR MIN TEMP:  68; 6HR MAX TEMP:  73;

L.A. AIRPORT   MOSUNNY   66  56  70 W17       29.85F
6HR MIN TEMP:  64; 6HR MAX TEMP:  68;

SAN DIEGO      PTSUNNY   66  55  67 SW13      29.89R
6HR MIN TEMP:  65; 6HR MAX TEMP:  70;

BURBANK        SUNNY     73  55  53 S12       29.82F
6HR MIN TEMP:  68; 6HR MAX TEMP:  76;

ONTARIO        MOSUNNY   79  52  38 W18       29.81S
6HR MIN TEMP:  69; 6HR MAX TEMP:  82;

RIVERSIDE      SUNNY     79  51  37 W13G22    29.80F
6HR MIN TEMP:  69; 6HR MAX TEMP:  83;

PALM SPRINGS   SUNNY     94  37  13 E10       29.71F
EL CENTRO NAS  MOSUNNY   94  32  11 E5        29.70F
6HR MIN TEMP:  84; 6HR MAX TEMP:  95;

IMPERIAL       SUNNY     96  34  11 E7        29.68F
6HR MIN TEMP:  85; 6HR MAX TEMP:  96;

BLYTHE         SUNNY     93  39  15 S12G17    29.70F
6HR MIN TEMP:  85; 6HR MAX TEMP:  94;

NEEDLES        SUNNY     94  32  11 E5G17     29.69F
6HR MIN TEMP:  89; 6HR MAX TEMP:  96;

$$

NVZ020-UTZ003-280100-
SOUTHERN NEVADA-UTAH

CITY           SKY/WX    TMP DP  RH WIND       PRES   REMARKS
LAS VEGAS      MOSUNNY   90  27  10 VRB3      29.71F
6HR MIN TEMP:  81; 6HR MAX TEMP:  90;

SALT LAKE CITY MOSUNNY   70  35  27 VRB3      29.88F
6HR MIN TEMP:  67; 6HR MAX TEMP:  74;

$$

NMZ009-TXZ055-280100-
NEW MEXICO-WEST TEXAS

CITY           SKY/WX    TMP DP  RH WIND       PRES   REMARKS
ALBUQUERQUE    PTSUNNY   73  21  14 W17       29.86S
6HR MIN TEMP:  67; 6HR MAX TEMP:  77;

EL PASO        SUNNY     83  15   8 W22G28    29.84F
6HR MIN TEMP:  76; 6HR MAX TEMP:  84;

$$


........................KEY........................
SKY/WX - SKY CONDITION/WEATHER
TMP    - TEMPERATURE IN FAHRENHEIT
DP     - DEW POINT IN FAHRENHEIT
RH     - RELATIVE HUMIDITY IN PERCENT
WIND   - DIRECTION AND SPEED IN MILES PER HOUR (MPH)
VRB    - VARIABLE WIND DIRECTION
PRES   - MEAN SEA LEVEL PRESSURE IN INCHES OF MERCURY
         F - FALLING PRESSURE   R - RISING PRESSURE
         S - STEADY PRESSURE
VSB    - VISIBILITY IN MILES
HX     - HEAT INDEX IN FAHRENHEIT
WCI    - WIND CHILL INDEX IN FAHRENHEIT
TC     - TEMPERATURE IN CELSIUS WHICH IS ALSO KNOWN AS
         TEMPERATURE IN CENTIGRADE
AFB    - AIR FORCE BASE
         LUKE AFB IS LUKE AIR FORCE BASE
         DAVIS-MONTHAN IS DAVIS-MONTHAN AIR FORCE BASE
NAS    - NAVAL AIR STATION
         EL CENTRO NAS IS EL CENTRO NAVAL AIR STATION
N/A    - NOT AVAILABLE





USA.gov is the U.S. government's official web portal to all federal, state and local government web resources and services.